BON967 VHHH-KLAX

Flight info

Callsign BON967
Flight time N/A
Altitude 31000
Route DALOL V631 ENVAR M750 LEKOS/N0489F330 M750 MUKEP Y891 OVSUN/N0486F320 Y893 IGMIS/N0484F330 Y57 PUTER/N0481F340 A590 PUGAL/N0476F350 A590 POWAL R451 ADK DCT 51N171W 50N158W/N0477F370 48N147W DCT 46N40 DCT 42N30/N0473F390 DCT FATMO DCT KL30E DCT SNAXX RYDRR2
Aircraft B77L/H-SDE1E2E3FGHIJ2J3J4J5M1RWXYZ/LB1D1

Departure

Time 2026-05-03 20:54
Airport Hong Kong International Airport (VHHH)

Arrival

Time N/A
Airport Los Angeles International Airport (KLAX)
Time Latitude Longitude Altitude Speed Heading
2026-05-03 20:32 22.30950 113.92481 41 ft 0 kts 115°
2026-05-03 20:44 22.30950 113.92480 41 ft 1 kts 115°
2026-05-03 20:44 22.30961 113.92457 41 ft 4 kts 115°
2026-05-03 20:44 22.30970 113.92436 41 ft 4 kts 122°
2026-05-03 20:44 22.30985 113.92417 41 ft 4 kts 155°
2026-05-03 20:45 22.31004 113.92413 41 ft 4 kts 201°
2026-05-03 20:45 22.31026 113.92424 41 ft 4 kts 206°
2026-05-03 20:45 22.31036 113.92429 41 ft 0 kts 206°
2026-05-03 20:47 22.31031 113.92426 41 ft 4 kts 206°
2026-05-03 20:47 22.30981 113.92400 41 ft 9 kts 206°
2026-05-03 20:47 22.30923 113.92370 41 ft 9 kts 206°
2026-05-03 20:48 22.30857 113.92336 41 ft 12 kts 206°
2026-05-03 20:48 22.30777 113.92339 41 ft 12 kts 162°
2026-05-03 20:48 22.30704 113.92284 41 ft 21 kts 246°
2026-05-03 20:48 22.30652 113.92125 40 ft 23 kts 251°
2026-05-03 20:49 22.30601 113.91964 42 ft 23 kts 251°
2026-05-03 20:49 22.30549 113.91805 40 ft 23 kts 251°
2026-05-03 20:49 22.30498 113.91645 41 ft 23 kts 251°
2026-05-03 20:49 22.30447 113.91487 40 ft 22 kts 251°
2026-05-03 20:50 22.30395 113.91328 41 ft 23 kts 251°
2026-05-03 20:50 22.30344 113.91169 41 ft 23 kts 251°
2026-05-03 20:50 22.30293 113.91010 41 ft 23 kts 251°
2026-05-03 20:50 22.30240 113.90849 41 ft 23 kts 250°
2026-05-03 20:51 22.30189 113.90688 40 ft 23 kts 251°
2026-05-03 20:51 22.30136 113.90529 41 ft 23 kts 250°
2026-05-03 20:51 22.30084 113.90368 41 ft 23 kts 252°
2026-05-03 20:51 22.30034 113.90210 41 ft 23 kts 250°
2026-05-03 20:52 22.29982 113.90050 41 ft 23 kts 250°
2026-05-03 20:52 22.29929 113.89889 41 ft 23 kts 251°
2026-05-03 20:52 22.29876 113.89752 41 ft 18 kts 225°
2026-05-03 20:52 22.29760 113.89757 41 ft 18 kts 159°
2026-05-03 20:53 22.29652 113.89815 41 ft 18 kts 125°
2026-05-03 20:53 22.29659 113.89916 39 ft 16 kts 70°
2026-05-03 20:53 22.29739 113.90164 39 ft 64 kts 71°
2026-05-03 20:53 22.29956 113.90834 42 ft 123 kts 70°
2026-05-03 20:54 22.30299 113.91889 41 ft 170 kts 70°
2026-05-03 20:54 22.31092 113.94429 841 ft 181 kts 69°
2026-05-03 20:54 22.31513 113.95720 1374 ft 183 kts 68°
2026-05-03 20:55 22.31937 113.97020 1868 ft 185 kts 69°
2026-05-03 20:55 22.32366 113.98344 2376 ft 187 kts 68°
2026-05-03 20:55 22.32797 113.99676 2850 ft 189 kts 68°
2026-05-03 20:55 22.33235 114.01026 3269 ft 196 kts 68°
2026-05-03 20:56 22.33689 114.02486 3445 ft 215 kts 74°
2026-05-03 20:56 22.33857 114.04181 3596 ft 241 kts 92°
2026-05-03 20:56 22.33478 114.06029 3829 ft 263 kts 113°
2026-05-03 20:56 22.32433 114.07679 4344 ft 273 kts 136°
2026-05-03 20:57 22.30795 114.08748 5010 ft 278 kts 163°
2026-05-03 20:57 22.28896 114.09003 5730 ft 278 kts 181°
2026-05-03 20:57 22.26967 114.08908 6422 ft 281 kts 184°
2026-05-03 20:57 22.24994 114.08814 7134 ft 282 kts 183°
2026-05-03 20:58 22.23045 114.08736 7864 ft 282 kts 183°
2026-05-03 20:58 22.21112 114.08687 8818 ft 270 kts 183°
2026-05-03 20:58 22.19258 114.08657 9558 ft 268 kts 183°
2026-05-03 20:58 22.17396 114.08734 10113 ft 270 kts 168°
2026-05-03 20:59 22.15726 114.09705 10539 ft 283 kts 135°
2026-05-03 20:59 22.14646 114.11498 11045 ft 289 kts 120°
2026-05-03 20:59 22.13730 114.13453 11557 ft 295 kts 120°
2026-05-03 20:59 22.12808 114.15435 12192 ft 298 kts 121°
2026-05-03 21:00 22.11876 114.17437 12828 ft 300 kts 121°
2026-05-03 21:00 22.11249 114.18771 13243 ft 302 kts 121°
2026-05-03 21:00 22.09961 114.21494 14048 ft 307 kts 122°
2026-05-03 21:00 22.08980 114.23554 14661 ft 310 kts 122°
2026-05-03 21:01 22.07969 114.25612 15210 ft 310 kts 128°
2026-05-03 21:01 22.06518 114.27294 15522 ft 308 kts 149°
2026-05-03 21:01 22.04718 114.28671 15658 ft 327 kts 150°
2026-05-03 21:01 22.02793 114.30121 15834 ft 348 kts 150°
2026-05-03 21:02 22.00764 114.31684 15991 ft 369 kts 149°
2026-05-03 21:02 21.98634 114.33352 16143 ft 389 kts 148°
2026-05-03 21:02 21.96408 114.35105 16309 ft 407 kts 148°
2026-05-03 21:02 21.94088 114.36939 16677 ft 419 kts 148°